Location: Sceptre
(50.8619°N, 109.2670°W)
Time: 00:16:47
(UTC+00:00)

CUBESAT XI-V - Visible Passes

Search period start: 29 June 2022 00:00
Search period end: 09 July 2022 00:00
Orbit: 666 x 692 km, 98.1° (Epoch: 28 June)

Date Brightness Start Highest point End Pass type
(mag) Time Alt. Az. Time Alt. Az. Time Alt. Az.
29 Jun ? 08:19:32 10° SE 08:23:56 50° ENE 08:28:24 10° N visible
29 Jun ? 09:57:56 10° SW 10:01:30 23° W 10:05:10 10° NW visible
30 Jun ? 07:19:46 10° E 07:22:41 17° ENE 07:25:35 10° NNE visible
30 Jun ? 08:55:29 14° SSE 08:59:24 81° WSW 09:04:02 10° NNW visible
01 Jul ? 07:53:50 10° SE 07:57:51 31° ENE 08:01:52 10° N visible
01 Jul ? 09:31:26 14° SSW 09:35:02 38° W 09:39:21 10° NNW visible
02 Jul ? 06:55:44 10° ENE 06:56:48 11° NE 06:57:51 10° NE visible
02 Jul ? 08:28:59 12° SSE 08:33:10 60° ENE 08:37:42 10° N visible
02 Jul ? 10:07:33 10° SW 10:10:51 19° W 10:14:10 10° NW visible
03 Jul ? 07:28:34 10° ESE 07:31:50 20° ENE 07:35:06 10° NNE visible
03 Jul ? 09:04:57 15° S 09:08:41 67° WSW 09:13:16 10° NNW visible
04 Jul ? 08:02:51 10° SE 08:07:02 36° ENE 08:11:14 10° N visible
04 Jul ? 09:40:54 14° SSW 09:44:22 32° W 09:48:29 10° NNW visible
05 Jul ? 07:03:58 10° ENE 07:05:54 13° NE 07:07:52 10° NNE visible
05 Jul ? 08:38:27 14° SSE 08:42:24 73° ENE 08:47:00 10° N visible
05 Jul ? 10:17:23 10° SW 10:20:12 16° W 10:23:04 10° NW visible
06 Jul ? 07:37:25 10° ESE 07:40:59 23° ENE 07:44:33 10° N visible
06 Jul ? 09:14:24 16° S 09:17:57 55° W 09:22:28 10° NNW visible
07 Jul ? 08:11:58 10° SE 08:16:13 43° ENE 08:20:34 10° N visible
07 Jul ? 09:50:22 13° SSW 09:53:40 27° W 09:57:34 10° NW visible
08 Jul ? 07:12:30 10° E 07:15:01 15° NE 07:17:32 10° NNE visible
08 Jul ? 08:47:56 16° SSE 08:51:38 87° ENE 08:56:15 10° NNW visible
08 Jul ? 10:27:23 10° WSW 10:29:35 13° W 10:31:46 10° WNW visible
